User: anonymous   Login
Location: Unspecified
(0.0000°N, 0.0000°E)
Time: 06:17:23
(UTC+00:00)
Language:

Cosmos 381 - Orbit

View from above orbital plane
View from above orbital plane
View from above satellite
View from above satellite

Ground track
Ground track

The orbit data is extracted from the following two-line orbital elements,

1 04783U 70102A   21067.79643021 -.00000001  00000-0  22114-4 0  9996
2 04783  74.0344 327.5792 0029942  48.0094 312.3568 13.74800805521453
Epoch (UTC): 08 March 2021 19:06:51
Eccentricity: 0.0029942
inclination: 74.0344°
perigee height: 960 km
apogee height: 1004 km
right ascension of ascending node: 327.5792°
argument of perigee: 48.0094°
revolutions per day: 13.74800805
mean anomaly at epoch: 312.3568°
orbit number at epoch: 52145

The dashed part of the orbit path shows where the satellite is in the earth's shadow,  

DLR